Terminal Aerodrome Forecast
Issued by NWS Duluth, MN

Home | Current Version | Previous Version | Text Only | Print | Product List | Glossary On
Versions: 1 2 3 4 5 6 7 8 9 10 11 12 13 14 15 16 17 18 19 20 21 22 23 24 25 26
000
FTUS43 KDLH 222000 AAA
TAFINL
TAF AMD
KINL 222018Z 2220/2318 36007KT P6SM OVC021
     FM222100 33004KT P6SM SCT040
     FM230700 00000KT 5SM BR BKN015
     FM231000 00000KT 2SM BR OVC004
     FM231600 07005KT P6SM OVC015=

USA.gov is the U.S. government's official web portal to all federal, state and local government web resources and services.